Regional Weather Roundup
Issued by NWS Bismarck, ND

Home | Current Version | Previous Version | Text Only | Print | Product List | Glossary On
Versions: 1 2 3 4 5 6 7 8 9 10 11 12 13 14 15 16 17 18 19 20 21 22 23 24 25 26 27 28 29 30 31 32 33 34 35 36 37 38 39 40 41 42 43 44 45 46 47 48 49 50
000
ASUS43 KBIS 031002
RWRBIS

NWR BROADCAST TEXT
NATIONAL WEATHER SERVICE BISMARCK ND
500 AM CDT MON AUG 03 2015

NOTE: "FAIR" INDICATES FEW OR NO CLOUDS BELOW 12,000 FEET WITH NO
SIGNIFICANT WEATHER AND/OR OBSTRUCTIONS TO VISIBILITY.


CITY           SKY/WX    TMP DP  RH WIND       PRES   REMARKS
WILLISTON      CLEAR     55  49  80 CALM      30.03S
MINOT          CLEAR     54  48  80 W8        29.99S
MINOT AFB      NOT AVBL
BISMARCK       CLEAR     51  50  96 CALM      30.00S
DICKINSON      CLEAR     52  47  83 W5        30.03S
GARRISON         N/A     52  49  89 NW7       30.00S
HETTINGER ARPT CLEAR     47  44  90 W5        30.05R
JAMESTOWN      CLEAR     54  50  86 NW3       29.95S
HAZEN          FAIR      48  46  93 CALM      30.02S
OAKES            N/A     54  54 100 W5        29.95S
STANLEY        FAIR      52  52 100 NW7       30.04R
$$

CITY           SKY/WX    TMP DP  RH WIND       PRES   REMARKS
GRAND FORKS    CLEAR     49  47  93 W8        29.89R
GRAND FORKS AF NOT AVBL
DEVILS LAKE    CLEAR     55  45  67 W8        29.93R
FARGO          CLEAR     52  47  83 W3        29.91R
CAVALIER       FAIR      50  46  87 W5        29.89S
GRAFTON        FAIR      54  50  87 W8        29.90R
GWINNER        FAIR      57  52  82 NW7       29.95R
LANGDON        FAIR      46  45  93 W5        29.93S
$$

CITY           SKY/WX    TMP DP  RH WIND       PRES   REMARKS
ABERDEEN       CLEAR     54  50  86 NW3       29.95S
MOBRIDGE       CLEAR     58  58 100 N6        29.97R
BUFFALO          N/A     59  48  67 E7        29.98S
RAPID CITY     CLEAR     57  52  83 CALM      30.03S
GLASGOW        CLEAR     59  48  67 E10       30.02S
SIDNEY         CLEAR     54  46  76 W5        30.03R
WOLF POINT     CLEAR     53  47  79 E5        30.02F
GLENDIVE         N/A    N/A N/A N/A MISG        N/A
MILES CITY     CLEAR     61  47  59 NE10      30.00S
BAKER          CLEAR     55  46  71 SE5       30.05S
$$

CITY           SKY/WX    TMP DP  RH WIND       PRES   REMARKS
BILLINGS       PTCLDY    64  45  49 N9        30.00S
GREAT FALLS    CLEAR     58  45  62 CALM      29.94S
$$




USA.gov is the U.S. government's official web portal to all federal, state and local government web resources and services.